This demonstration page uses our WeatherBlox Daily Observations layout. Learn more.

Left ArrowRight Arrow

Hourly Observations for April 11, 2019

Temp ( °F °C ) Dew Point ( °F °C ) Humidity (%) Winds ( mph kmh ) Pressure ( in mb ) Visibility ( mi km ) Precip ( " mm )
12:53 am 00:53 Clear 65 18.3 1 -17.2 8 8 WNW 21 33 29.52 1000 10 16 0.00 0.00
1:53 am 01:53 Clear 62 16.7 4 -15.6 10 10 NW 24 39 29.55 1001 10 16 0.00 0.00
2:53 am 02:53 Clear 55 12.8 13 -10.6 19 19 WNW 8 13 29.58 1002 10 16 0.00 0.00
3:53 am 03:53 Clear 52 11.1 15 -9.4 23 23 WNW 3 6 29.60 1002 10 16 0.00 0.00
4:53 am 04:53 Clear 51 10.6 14 -10 23 23 WSW 8 13 29.60 1002 10 16 0.00 0.00
5:53 am 05:53 Clear 45 7.2 11 -11.7 25 25 SSW 8 13 29.62 1003 10 16 0.00 0.00
6:53 am 06:53 Clear 46 7.8 13 -10.6 26 26 SSW 7 11 29.63 1003 10 16 0.00 0.00
7:53 am 07:53 Sunny 48 8.9 11 -11.7 22 22 SW 6 9 29.64 1004 10 16 0.00 0.00
8:53 am 08:53 Sunny 52 11.1 11 -11.7 19 19 SSE 6 9 29.67 1005 10 16 0.00 0.00
9:53 am 09:53 Sunny 61 16.1 11 -11.7 14 14 W 21 33 29.66 1004 10 16 0.00 0.00
10:53 am 10:53 Sunny 64 17.8 12 -11.1 13 13 WNW 21 33 29.66 1004 10 16 0.00 0.00
11:53 am 11:53 Sunny 67 19.4 14 -10 13 13 NW 18 30 29.66 1005 10 16 0.00 0.00
12:53 pm 12:53 Sunny 67 19.4 14 -10 13 13 WNW 12 19 29.66 1004 10 16 0.00 0.00
1:53 pm 13:53 Sunny 69 20.6 12 -11.1 11 11 WSW 14 22 29.64 1004 10 16 0.00 0.00
2:53 pm 14:53 Sunny 73 22.8 9 -12.8 8 8 WNW 28 44 29.62 1003 10 16 0.00 0.00
3:53 pm 15:53 Sunny 73 22.8 9 -12.8 8 8 W 23 37 29.60 1003 10 16 0.00 0.00
4:53 pm 16:53 Sunny 73 22.8 9 -12.8 8 8 WNW 24 39 29.59 1002 10 16 0.00 0.00
5:53 pm 17:53 Sunny 72 22.2 10 -12.2 9 9 W 28 44 29.61 1003 10 16 0.00 0.00
6:53 pm 18:53 Sunny 71 21.7 11 -11.7 10 10 WNW 23 37 29.62 1003 10 16 0.00 0.00
7:53 pm 19:53 Sunny 68 20 11 -11.7 11 11 W 17 28 29.64 1004 10 16 0.00 0.00
8:53 pm 20:53 Clear 63 17.2 13 -10.6 14 14 WSW 7 11 29.65 1004 10 16 0.00 0.00
9:53 pm 21:53 Clear 58 14.4 14 -10 18 18 WSW 9 15 29.67 1005 10 16 0.00 0.00
10:53 pm 22:53 Clear 53 11.7 13 -10.6 20 20 SW 8 13 29.69 1005 10 16 0.00 0.00
11:53 pm 23:53 Clear 53 11.7 12 -11.1 19 19 SW 9 15 29.69 1005 10 16 0.00 0.00

Powered by AerisWeather